Location: Fours
(44.3167°N, 6.7000°E)
Time: 12:17:43
(UTC+00:00)

ADEOS Rocket - Pass Details

Date: 30 November 2020
Orbit: 858 x 1307 km, 98.7° (Epoch: 25 January)

Event Time Altitude Azimuth Distance (km) Brightness Sun altitude
Rises 16:56:56 0° 10° (N) 4,260 6.0 -10.8°
Reaches altitude 10° 16:59:40 10° 7° (N) 3,312 5.5 -11.2°
Maximum altitude 17:07:12 56° 292° (WNW) 1,520 4.3 -12.5°
Drops below altitude 10° 17:14:38 10° 217° (SW) 3,270 6.6 -13.7°
Sets 17:17:19 0° 213° (SSW) 4,201 7.1 -14.2°
